GFSNGP_sfc_wetblb_069.txt.gz
Wetbulb
36.63 39.25 39.79 39.28 39.65 40.71 38.62 39.27 33.98 38.76 40.61 44.66 51.72 52.46 54.87 58.28 61.02 61.68 62.91 63.65 63.76 64.26 64.81 67.35 68.20 69.28 69.15 71.91 72.07 73.56 73.74 73.67 73.38 73.48 73.57 73.71 72.20 71.30 70.00 73.70 73.11 73.44 73.77 74.34
35.39 39.70 39.25 37.52 40.00 41.20 41.32 41.52 41.25 41.23 41.30 46.83 50.27 54.08 54.34 55.87 58.33 59.54 61.76 64.42 66.13 66.02 67.19 68.25 69.72 67.48 69.00 70.66 72.18 72.50 73.51 73.69 74.18 73.84 73.75 73.58 73.33 72.93 70.49 71.04 74.07 73.42 73.23 74.17
29.85 36.68 36.18 32.39 37.82 39.47 40.58 42.62 41.87 37.91 42.16 46.43 46.91 48.64 55.03 58.45 58.13 59.39 60.40 61.42 62.31 64.10 66.18 67.17 67.61 68.24 66.63 67.72 72.42 72.55 72.40 73.59 73.79 73.82 73.69 73.50 73.78 72.96 72.65 70.71 71.60 73.03 74.16 74.54
29.17 31.39 24.99 35.74 42.27 43.16 41.34 42.85 46.41 47.03 46.99 50.69 51.40 53.31 56.78 59.22 58.83 58.45 58.94 60.50 61.81 62.39 63.15 66.06 67.93 67.69 67.84 69.24 69.41 70.43 71.60 72.36 73.37 73.46 73.44 73.66 73.54 73.29 73.14 73.35 72.59 72.68 73.28 74.46
28.40 27.57 32.98 36.90 39.55 41.92 40.82 40.43 46.65 45.35 47.10 48.69 51.83 53.33 52.52 55.28 58.47 58.08 57.47 59.28 60.84 62.67 62.74 64.72 68.25 69.11 68.65 69.31 68.01 67.03 70.57 72.05 72.79 73.35 73.30 73.51 72.93 73.31 73.29 73.60 73.67 73.19 74.30 74.45
31.68 26.37 24.88 35.46 43.95 46.88 45.78 34.58 45.53 45.68 45.80 46.72 48.68 44.91 48.24 53.87 56.96 56.64 57.43 58.12 59.59 61.36 61.77 62.63 65.26 66.68 67.91 64.06 63.63 64.38 69.93 72.75 73.19 73.31 73.60 73.00 73.57 73.35 73.98 73.41 73.27 74.30 73.75 74.63
31.04 30.34 33.30 41.82 44.81 46.49 33.44 34.89 45.44 45.33 45.25 46.36 45.60 48.55 51.42 53.84 53.87 54.94 56.37 57.44 59.65 59.02 58.92 60.35 61.75 62.87 64.54 65.92 68.83 70.85 72.81 73.37 73.80 73.45 73.49 73.69 73.74 74.21 73.74 73.87 73.46 73.10 73.89 74.44
32.38 28.51 26.54 43.67 44.02 37.59 41.39 43.21 43.94 45.09 45.17 45.26 48.14 50.23 51.55 52.84 52.82 53.44 54.45 57.00 57.07 56.23 57.56 58.60 60.10 59.46 60.84 62.33 64.33 67.11 69.20 73.10 73.56 74.24 73.75 74.51 73.87 74.00 73.95 73.67 73.27 72.96 73.05 73.78
35.39 35.89 41.41 43.46 42.11 43.70 43.88 41.64 43.24 43.41 45.50 48.07 47.88 48.48 51.82 51.39 52.09 53.43 54.34 55.77 55.86 54.90 55.63 57.32 58.11 58.31 57.79 59.17 61.96 63.84 66.19 71.07 72.74 74.57 74.05 74.20 74.05 73.76 73.72 73.95 73.48 73.16 73.35 73.31
33.26 38.39 37.45 40.88 41.69 42.66 42.71 42.28 43.58 45.31 46.44 47.89 47.74 50.24 49.88 51.10 51.22 52.82 54.69 54.87 56.37 55.44 54.43 54.96 56.46 57.29 57.97 59.29 60.88 62.22 64.45 69.96 74.23 74.58 74.42 74.35 75.48 74.98 74.68 74.29 73.85 73.71 73.55 73.55
35.00 37.36 38.06 40.05 40.27 41.86 42.06 43.33 43.91 45.29 46.50 47.04 47.13 48.48 49.80 50.08 50.06 51.30 53.07 54.11 54.34 54.66 53.65 54.15 55.44 55.89 57.56 58.17 59.03 60.20 62.10 68.20 74.44 74.53 73.34 74.85 75.43 75.10 75.28 75.90 74.23 74.63 74.60 74.76
31.95 38.09 37.83 38.00 41.15 42.79 41.11 41.89 43.55 44.61 44.82 46.55 47.59 46.94 48.89 48.91 49.97 52.29 53.51 54.80 54.19 54.22 52.96 52.30 53.16 54.11 56.47 57.51 57.94 59.05 60.33 67.19 72.55 74.67 74.66 75.18 74.58 69.67 52.46 54.83 56.33 57.44 61.50 70.68
38.15 41.19 41.04 41.52 42.23 43.67 41.39 41.44 42.97 44.15 45.03 44.71 46.41 46.86 48.51 49.22 49.76 51.42 53.97 53.24 53.29 52.61 52.09 51.31 51.71 53.66 55.63 56.71 58.06 58.07 58.92 62.21 66.43 70.43 73.76 74.47 74.46 74.11 69.79 60.68 51.38 48.15 49.98 58.11
43.05 42.66 39.85 40.93 39.81 43.63 43.52 42.30 42.99 43.67 44.59 46.18 46.52 48.19 49.48 50.34 50.62 49.89 49.60 51.10 51.52 51.21 50.44 50.65 50.89 51.56 54.43 56.61 56.17 56.33 58.11 58.07 63.61 68.72 70.47 71.54 73.95 74.11 73.76 68.72 68.47 67.44 53.25 53.25
43.81 44.15 42.22 43.06 43.67 43.51 44.35 43.11 41.09 40.83 42.53 43.98 45.52 46.19 48.28 47.62 47.18 47.86 49.50 49.95 50.61 49.69 48.82 49.46 50.02 50.88 53.88 54.78 54.40 54.83 56.83 58.60 61.68 64.55 69.81 67.64 72.79 73.81 73.61 71.18 70.19 68.30 60.53 57.03
44.44 44.32 43.77 42.61 43.18 43.57 43.31 43.61 41.89 41.42 41.70 43.22 44.45 45.03 46.85 47.28 47.19 47.37 47.68 48.91 47.00 46.03 45.89 47.96 48.90 50.79 53.46 52.42 53.08 54.39 56.81 58.59 60.68 64.59 67.95 68.25 69.06 69.33 71.89 72.34 71.99 66.60 66.33 65.97
42.69 41.67 42.22 42.71 42.82 43.18 43.03 44.40 44.21 43.18 43.11 43.13 43.82 45.01 45.09 45.91 45.32 44.94 45.64 46.80 47.12 45.64 45.67 46.60 47.90 49.75 51.42 50.91 51.97 55.19 56.25 58.49 57.59 59.54 62.32 62.93 63.45 67.03 67.35 67.84 68.72 68.25 68.36 65.88
46.88 46.31 46.47 44.68 43.62 43.46 43.62 44.66 44.31 44.39 43.51 44.62 44.64 44.29 44.06 43.60 43.28 44.89 45.07 45.65 45.53 45.15 45.11 45.95 48.04 47.58 48.58 49.20 50.66 51.23 53.21 54.21 55.81 55.31 56.93 59.24 59.02 59.64 63.86 65.97 66.69 66.78 67.93 59.69
48.73 47.82 47.25 47.02 45.15 44.75 45.32 45.06 44.70 45.56 45.36 45.55 44.45 43.46 43.78 43.79 43.70 44.82 44.77 44.25 43.84 43.13 44.17 46.16 48.01 46.37 45.12 49.02 48.26 48.58 48.54 50.67 50.15 51.55 52.43 53.51 55.21 55.17 54.89 56.39 58.59 63.64 66.29 65.63
48.72 49.18 47.76 48.49 47.10 45.77 45.45 46.34 45.77 45.63 46.32 46.21 45.77 44.76 42.88 43.29 43.48 43.29 44.09 43.16 44.28 45.31 46.56 46.05 44.96 44.53 44.31 45.77 46.33 44.67 46.07 45.21 46.73 45.26 46.96 46.91 47.77 49.07 50.28 49.29 49.90 50.30 53.04 55.21
48.11 47.79 47.38 46.23 46.66 47.87 46.36 45.46 45.41 45.57 45.60 46.54 45.62 44.12 43.44 43.36 43.94 43.78 42.75 42.26 44.34 46.84 46.39 46.46 45.46 44.37 44.58 43.70 43.10 42.04 41.91 42.60 41.88 42.06 42.09 42.06 42.14 42.33 43.10 44.54 45.08 47.36 45.79 45.40
47.65 46.44 46.87 46.21 45.44 46.38 45.87 45.84 46.21 46.45 46.73 46.31 46.80 45.70 44.78 43.13 43.82 44.32 44.76 43.76 45.49 47.34 46.32 46.01 46.09 47.25 45.45 45.18 42.39 41.51 40.92 40.52 40.33 40.15 39.91 40.01 39.78 39.16 38.98 39.31 39.96 40.37 40.75 41.75
47.00 47.24 47.03 46.07 45.60 45.32 47.58 44.94 45.54 46.89 45.87 46.63 46.26 45.69 43.11 42.63 42.81 41.71 40.99 43.77 44.38 45.55 45.41 45.05 48.32 48.40 46.39 43.99 43.03 42.14 41.22 40.27 39.75 39.36 39.31 39.13 39.00 38.87 38.52 38.25 38.25 38.64 38.93 38.83
47.69 46.03 46.57 48.09 46.74 45.51 44.66 47.60 45.19 47.55 46.58 46.71 46.80 46.47 44.43 42.14 43.15 44.45 45.28 45.54 46.15 45.86 44.63 44.88 46.53 48.25 47.17 43.96 42.86 42.53 41.99 41.31 40.72 40.03 39.40 39.03 38.72 38.68 38.53 38.32 38.05 38.37 38.55 38.19
46.96 46.84 46.66 46.56 45.71 43.16 44.95 45.63 45.71 46.72 46.27 46.17 46.03 46.03 45.96 45.48 43.68 44.57 45.53 45.93 46.77 45.17 44.51 46.27 47.60 47.91 44.30 44.09 43.20 42.46 41.83 41.59 41.35 40.99 40.17 40.06 39.07 38.44 38.38 38.38 38.46 38.55 38.37 38.36
46.13 46.10 44.82 46.62 45.89 44.33 44.45 44.57 43.33 44.32 45.00 44.17 46.30 46.76 46.65 45.72 45.95 45.54 45.93 46.21 45.80 45.88 44.37 44.10 43.73 43.21 43.19 43.92 43.21 43.31 43.16 41.74 41.07 40.47 40.33 40.46 39.99 38.96 38.86 38.78 39.06 38.95 38.90 38.56
47.00 44.62 45.43 45.68 45.55 45.60 43.21 43.68 43.81 42.41 44.83 45.08 43.98 45.92 46.57 47.02 46.27 46.10 46.03 45.45 45.01 45.14 44.91 44.57 44.55 44.02 43.26 43.21 43.27 42.72 42.23 41.57 41.30 40.94 40.59 40.06 39.89 39.48 38.92 39.29 38.56 38.42 38.50 38.79

GFSNGP_sfc_wetblb_072.txt.gz
Wetbulb
32.04 37.24 38.17 37.41 37.39 38.22 34.44 34.20 30.26 35.17 35.68 39.69 43.36 46.08 53.15 57.07 59.76 60.81 62.73 63.86 64.37 64.36 64.73 64.91 66.26 66.34 68.82 69.04 70.06 71.51 71.12 70.97 70.52 71.92 71.95 70.30 68.76 70.39 69.78 70.55 70.63 72.02 71.92 73.21
32.26 37.83 36.94 34.99 37.71 38.89 38.60 38.53 37.68 38.28 36.85 48.32 50.06 54.47 55.97 56.45 58.80 59.70 61.18 61.75 62.20 64.70 66.80 66.61 66.70 67.76 68.69 68.39 69.17 71.82 71.33 71.29 71.71 71.26 72.22 71.95 70.23 69.14 69.46 69.16 71.23 71.31 72.76 72.76
23.97 34.50 34.14 29.22 34.46 36.92 38.11 39.42 40.46 38.83 41.56 47.07 47.50 50.57 50.58 53.00 56.63 58.20 60.16 61.03 61.38 62.54 63.48 65.95 67.68 68.10 67.29 67.34 68.59 69.07 71.06 72.20 72.26 72.32 71.78 72.00 72.38 70.76 69.92 68.99 68.77 71.37 71.17 72.55
25.13 29.18 22.54 33.11 38.86 40.84 40.11 42.92 44.06 44.01 44.88 46.32 46.98 49.23 50.88 52.81 54.41 55.05 57.65 59.27 61.06 62.31 63.58 66.27 66.91 67.12 67.83 68.25 69.44 69.06 69.70 71.57 73.11 73.05 72.72 72.51 72.38 72.27 71.66 71.12 68.89 69.20 72.29 71.57
24.78 24.90 30.51 35.19 37.96 37.51 38.44 38.82 43.51 42.29 43.94 45.79 47.53 50.13 48.65 51.86 53.34 53.50 54.91 57.80 60.26 61.37 62.05 63.86 63.11 63.73 66.31 68.62 68.62 67.83 67.33 67.35 70.18 73.43 73.14 72.88 72.24 72.27 72.55 72.11 71.14 69.76 70.30 72.79
27.50 22.30 22.61 32.27 41.60 44.86 42.55 33.68 43.71 43.96 43.06 43.03 44.78 40.66 44.21 49.81 52.62 53.46 54.54 57.80 58.33 59.77 59.74 60.17 60.06 61.51 63.69 65.43 66.51 66.36 67.34 67.23 69.56 71.06 72.90 72.84 73.11 72.88 73.13 72.92 72.40 72.41 71.41 71.39
27.11 26.80 31.52 39.01 41.21 43.80 30.57 32.09 42.15 43.49 43.21 42.91 41.32 44.16 47.00 50.19 51.49 53.57 55.56 56.92 57.38 57.86 57.48 58.50 59.44 59.75 60.10 61.41 62.53 63.25 65.12 65.62 66.95 69.05 72.59 73.50 73.61 73.32 73.38 73.17 72.75 72.58 72.36 72.59
27.43 22.99 24.71 40.24 41.51 35.32 39.09 40.42 40.94 41.77 42.30 42.76 44.26 46.95 48.86 49.66 50.47 52.69 53.67 55.76 56.26 55.89 56.99 57.87 58.22 57.75 57.31 57.81 60.07 62.42 63.60 64.25 65.49 68.09 73.01 73.46 73.25 73.35 73.08 72.92 72.42 71.81 71.95 72.56
32.59 35.45 39.46 41.56 40.62 42.02 41.16 38.14 39.35 40.39 42.30 43.78 43.25 45.45 47.64 48.44 48.83 50.57 53.43 54.46 55.61 55.19 55.44 55.69 56.57 56.01 55.50 57.25 58.97 59.90 61.52 63.35 64.51 66.85 71.67 73.09 72.76 72.53 72.38 72.56 72.24 71.84 71.33 71.13
30.55 35.35 37.42 39.37 40.33 40.20 41.64 40.35 41.03 41.85 42.69 43.63 43.14 45.45 45.54 47.17 48.56 48.76 51.16 53.01 54.55 54.36 53.85 53.77 54.28 55.16 55.03 56.40 57.61 58.33 59.92 61.43 63.67 66.48 70.56 72.67 73.37 72.96 72.62 72.30 71.87 71.76 71.68 71.50
33.42 34.83 37.62 39.55 40.48 40.28 41.82 42.01 42.13 43.41 43.51 44.64 45.17 45.41 45.62 45.76 47.02 48.22 49.44 52.02 54.14 52.22 51.90 51.89 52.72 53.21 54.22 55.95 56.90 57.32 58.58 60.25 62.18 66.91 70.09 73.25 72.72 72.45 72.88 73.46 72.03 72.51 72.51 72.72
27.44 34.03 37.83 38.37 41.33 42.61 41.79 40.91 41.84 41.21 42.10 44.64 45.69 45.40 46.34 45.68 47.35 48.12 48.72 52.66 53.83 53.00 51.82 50.36 50.74 51.71 53.50 54.52 55.94 56.34 56.96 58.46 60.33 62.62 65.60 73.19 72.85 67.38 52.87 55.46 56.58 57.24 58.51 68.49
34.90 38.47 38.93 39.80 41.92 43.06 42.42 42.67 43.08 42.38 42.92 43.05 45.36 46.02 46.22 46.18 47.60 49.17 51.59 51.18 48.60 50.57 48.93 48.81 49.40 49.30 52.16 52.79 54.42 53.83 54.96 57.14 58.86 60.50 64.58 71.42 73.40 70.97 70.16 61.21 52.25 51.06 52.69 55.91
40.78 40.36 38.40 40.06 39.50 42.89 43.35 44.12 44.37 43.23 43.28 43.89 45.33 46.42 48.00 48.22 49.21 50.18 49.44 48.10 50.64 50.08 48.99 47.97 47.92 48.82 50.94 52.13 51.62 52.44 54.36 54.84 58.25 60.22 62.43 67.40 71.40 73.51 72.13 70.06 70.11 68.17 52.33 56.68
41.54 42.67 41.30 41.95 42.03 43.37 44.35 44.06 43.33 42.30 42.02 42.91 45.11 46.12 47.18 46.97 47.15 47.45 48.67 49.54 49.22 47.86 46.52 46.97 47.43 47.72 49.01 50.99 50.68 51.51 54.16 56.86 58.66 60.07 63.27 65.55 68.44 71.72 71.15 70.25 70.04 69.32 61.31 54.50
42.84 43.13 43.61 42.23 40.78 42.19 43.52 43.50 42.86 42.38 41.92 42.63 43.26 44.33 45.57 45.84 45.59 45.89 46.36 47.72 45.46 43.81 44.78 45.44 45.80 46.97 47.70 48.92 49.65 51.38 54.24 55.30 56.42 57.22 60.29 62.86 65.32 68.28 70.88 71.20 70.20 68.10 66.65 68.15
39.82 39.62 40.30 40.40 40.94 41.70 41.94 43.17 43.42 43.41 43.40 42.81 43.02 44.17 44.48 44.32 45.12 44.80 45.25 45.82 46.04 45.17 44.96 45.19 45.81 46.88 46.23 46.45 49.21 50.52 52.04 53.02 53.52 54.54 54.72 58.22 59.79 64.15 66.90 70.59 70.27 67.36 67.49 64.93
44.36 43.54 43.25 42.98 41.65 41.33 41.43 43.37 43.08 43.64 43.34 44.07 44.18 43.80 43.49 43.10 43.03 43.35 44.05 45.16 45.18 44.66 44.85 45.58 46.91 45.52 44.67 46.75 46.62 48.14 48.95 50.53 49.99 50.15 50.46 49.76 53.28 55.50 58.79 64.08 67.74 67.97 64.16 62.03
47.25 45.22 45.24 46.16 43.59 42.00 41.80 43.04 43.17 43.94 44.15 44.64 43.90 42.71 43.13 42.97 43.10 43.68 44.31 43.54 43.77 43.26 44.43 46.00 47.52 45.75 43.69 47.32 46.63 46.32 46.25 47.04 46.97 46.01 47.56 46.43 45.69 49.54 51.29 51.65 57.60 63.93 63.00 61.98
47.64 46.67 45.98 46.26 45.06 42.90 42.05 43.66 44.05 44.05 45.14 44.80 44.48 42.81 42.06 42.78 43.32 43.34 43.83 42.54 43.62 44.76 46.12 46.34 45.02 44.83 43.89 44.65 45.61 43.29 43.89 43.25 43.70 44.32 44.14 44.16 43.75 42.13 44.06 47.38 48.73 48.71 49.67 51.31
45.89 47.32 46.07 44.35 42.78 44.25 44.01 42.80 43.59 44.01 44.70 45.57 44.16 43.08 42.32 43.53 43.62 43.58 42.02 41.97 44.34 45.92 45.80 47.18 45.37 44.59 44.75 43.66 42.29 41.45 41.32 41.29 41.08 41.03 41.06 40.92 41.08 41.05 40.57 41.57 42.44 45.18 44.96 43.81
44.97 45.69 45.03 45.08 43.35 41.88 42.77 42.97 43.38 43.72 43.98 45.43 45.13 44.61 43.06 41.66 42.88 43.41 43.74 42.69 44.77 46.49 45.62 45.87 45.50 46.15 45.08 45.49 42.29 40.88 40.43 40.03 39.79 39.66 39.54 39.31 38.64 38.76 38.72 39.52 39.69 40.05 40.34 40.79
44.59 45.60 45.96 44.35 42.80 41.62 42.14 41.72 42.07 43.42 42.72 44.06 43.57 43.37 41.02 41.62 41.22 40.76 40.84 43.69 44.13 45.12 45.65 45.71 46.45 46.25 45.47 43.33 43.01 41.88 40.83 39.67 39.22 38.84 38.89 39.31 38.59 38.26 37.95 37.80 38.03 38.41 38.72 38.41
42.62 44.21 43.03 44.21 41.99 39.96 40.83 40.68 41.25 42.70 43.35 44.06 44.38 43.28 41.45 40.24 41.58 42.90 43.17 45.38 46.35 46.10 44.01 44.50 45.66 45.73 44.92 43.80 42.93 42.16 40.99 40.54 39.82 39.22 39.02 38.76 38.50 38.56 38.48 38.10 37.82 38.22 38.59 38.36
42.93 43.54 43.45 44.57 42.18 39.05 38.27 39.83 41.82 41.68 42.44 41.76 43.18 43.28 42.85 42.04 41.06 42.91 43.73 44.04 45.37 43.94 43.44 47.11 47.51 46.39 44.35 43.73 43.27 42.16 41.71 40.91 40.12 39.26 39.06 38.64 38.35 38.36 38.06 38.06 37.98 37.88 37.52 37.46
40.77 40.90 41.53 43.14 43.48 39.23 39.43 40.06 39.64 39.82 41.69 41.66 42.98 43.77 43.70 43.50 44.89 42.92 43.75 44.89 43.55 44.23 42.37 42.13 42.20 42.29 42.13 43.27 43.55 43.28 42.18 41.42 40.72 40.01 39.36 39.00 38.59 38.25 38.18 38.40 38.26 37.78 37.58 37.41
40.65 41.79 41.91 44.42 44.41 42.85 42.17 40.01 38.73 39.91 41.35 40.75 40.99 43.59 43.32 44.54 44.53 43.24 43.36 43.02 43.04 42.44 41.87 41.21 41.06 42.28 41.01 41.30 41.71 42.44 42.50 42.20 40.84 40.65 40.50 39.75 39.23 38.89 38.27 37.47 36.71 37.50 37.38 37.34

GFSNGP_sfc_wetblb_078.txt.gz
Wetbulb
31.27 34.89 34.69 34.07 33.93 35.50 31.60 30.90 29.44 31.89 34.69 41.71 44.61 47.56 48.76 50.20 52.18 54.40 58.12 58.44 59.55 60.83 65.25 66.01 67.04 66.88 66.98 67.61 68.09 68.62 68.54 68.80 68.54 69.03 69.05 69.05 69.03 69.27 70.35 69.93 70.13 70.67 70.99 72.39
28.81 34.37 33.88 32.50 34.82 35.86 35.54 35.65 34.91 35.77 37.01 44.35 46.84 49.32 48.61 48.86 50.05 51.66 54.82 56.53 57.53 58.75 58.98 61.85 61.95 63.47 65.68 67.51 68.26 69.00 68.47 68.53 69.58 69.73 69.53 68.73 68.65 68.77 69.11 69.98 69.92 69.72 70.24 71.27
22.65 30.54 30.36 26.82 31.56 33.66 35.51 38.10 35.86 31.97 38.30 44.15 43.81 46.58 46.78 47.83 49.19 49.99 52.60 55.29 55.71 57.35 57.89 59.33 60.22 60.99 62.20 64.30 68.14 68.16 69.19 69.19 69.42 70.12 69.87 69.84 68.94 68.57 68.15 68.63 69.77 69.30 69.61 70.12
23.78 24.74 21.09 28.90 35.97 38.10 39.25 41.86 42.42 42.04 42.53 43.01 43.11 44.20 47.14 47.60 47.25 48.65 50.65 53.84 55.35 56.32 57.90 58.27 59.67 58.96 61.18 64.22 67.63 67.96 68.43 69.71 69.68 69.72 69.71 70.34 70.40 68.71 68.21 68.34 68.55 68.96 69.38 69.92
23.72 22.53 27.41 33.41 37.53 37.63 35.61 36.55 41.96 40.99 42.05 42.35 42.86 44.13 45.88 46.34 46.99 48.49 50.07 52.96 55.37 56.21 57.44 58.31 58.40 57.88 59.65 62.13 61.99 63.02 65.03 67.58 69.63 71.20 70.11 70.18 70.21 70.73 69.98 68.84 68.11 68.46 68.98 69.06
24.86 21.22 22.07 30.11 39.10 41.39 40.12 31.64 41.01 41.63 40.15 39.39 40.89 35.18 44.13 44.34 45.87 47.94 50.58 52.21 54.46 55.84 56.55 57.18 57.55 57.21 57.42 59.33 59.08 59.30 60.61 62.17 64.25 66.35 69.06 70.80 70.34 70.70 71.39 71.26 69.80 69.36 69.12 69.22
25.07 22.30 28.22 37.22 39.21 41.38 29.45 30.28 40.44 39.89 39.76 38.53 37.22 39.65 41.95 43.63 44.48 46.45 48.64 50.31 53.15 54.32 55.00 55.91 57.18 55.83 55.26 56.13 56.47 58.28 59.98 61.13 63.35 64.80 66.11 68.43 70.18 72.58 71.84 71.93 71.54 71.08 70.25 70.57
28.52 23.73 22.85 39.74 38.94 34.61 36.19 38.05 38.83 38.99 38.97 38.21 39.06 40.40 41.52 42.19 42.91 44.53 45.73 48.07 50.33 50.90 52.85 55.35 56.54 54.23 53.20 53.75 55.77 57.82 58.93 60.51 61.84 63.16 64.69 66.66 67.63 69.43 71.72 72.59 71.63 71.59 71.35 71.31
28.19 28.34 36.74 39.01 37.07 39.66 39.11 36.96 37.78 38.14 39.44 40.34 38.92 39.55 41.14 41.65 42.69 43.68 45.34 47.16 49.32 49.17 50.38 53.80 55.15 54.37 51.85 53.24 55.18 56.31 57.11 58.52 59.61 61.84 63.45 65.67 66.34 67.26 68.75 71.82 72.16 71.24 71.31 71.28
27.79 30.50 33.51 37.17 37.88 39.46 39.36 38.47 39.66 41.32 41.44 41.44 40.08 41.18 41.10 41.19 41.65 42.80 44.52 45.93 47.87 48.26 48.49 50.58 53.94 53.65 52.95 53.79 54.16 54.31 54.52 56.17 57.03 59.10 60.18 62.11 65.33 67.01 67.20 70.78 71.86 71.38 71.38 71.33
27.33 31.08 33.22 35.93 38.17 38.94 40.03 41.79 42.72 43.14 42.68 42.23 42.55 42.04 42.09 41.48 42.09 43.03 44.39 45.94 46.69 47.21 47.79 48.86 52.62 52.45 52.58 52.91 53.57 52.38 53.35 53.34 54.84 57.13 57.99 59.64 61.94 64.19 65.66 68.41 70.65 71.89 72.57 72.69
27.28 32.70 33.26 33.96 38.59 39.95 39.36 39.69 41.01 42.81 42.37 43.83 43.58 42.62 42.69 41.84 43.34 43.92 44.44 45.68 45.86 46.46 47.22 48.54 51.72 50.69 50.92 52.28 51.69 51.30 50.64 51.54 53.25 54.69 57.21 58.21 59.70 61.33 58.00 55.00 54.30 53.75 54.84 65.86
33.63 35.06 35.95 37.75 39.17 40.31 39.70 40.44 42.97 43.35 43.83 42.76 43.34 43.32 42.83 42.73 43.57 45.56 46.11 46.07 45.88 45.42 46.63 48.58 51.56 49.25 49.20 49.97 49.55 48.88 49.60 50.31 51.42 52.71 55.85 57.47 58.57 59.50 61.75 63.35 53.57 50.85 49.58 50.49
36.99 38.03 36.49 38.02 37.24 40.33 40.94 42.00 43.89 44.94 44.90 44.43 42.48 43.11 43.33 42.99 43.63 46.28 46.80 47.28 47.21 46.78 47.30 50.68 48.46 47.47 48.08 48.50 47.72 47.66 48.48 48.64 50.94 53.72 55.73 55.84 57.85 58.94 60.79 63.60 65.97 68.01 55.56 53.57
38.70 39.47 38.29 38.95 39.70 39.98 41.11 41.58 41.76 42.21 42.90 42.33 41.88 42.53 43.01 42.45 42.63 44.48 45.81 46.73 48.40 48.28 46.81 46.05 45.23 46.07 47.79 48.08 46.69 46.09 46.35 48.12 50.09 52.12 53.70 53.68 55.06 58.06 59.06 61.64 64.58 67.47 71.35 57.88
40.97 39.94 39.84 39.32 40.00 40.79 41.09 41.12 40.17 40.47 42.08 41.00 40.66 42.46 43.36 43.37 43.67 44.31 45.07 45.67 44.65 43.76 44.57 45.16 45.05 45.63 47.13 48.06 45.42 46.46 47.20 48.33 49.53 51.06 51.97 52.06 53.41 55.15 56.59 58.40 59.84 62.42 68.26 70.42
41.17 39.97 39.89 39.92 40.51 41.08 40.76 41.01 40.95 41.16 43.57 41.71 43.00 43.84 43.72 42.72 42.57 42.72 43.85 45.04 45.55 45.39 45.10 45.02 45.04 46.58 48.01 46.39 46.21 45.94 47.39 47.14 48.75 50.03 49.66 50.92 51.61 51.23 52.69 54.23 55.35 58.40 61.06 66.05
44.08 43.39 42.67 42.13 41.18 41.08 41.31 41.87 41.85 41.89 42.60 43.22 44.67 44.36 43.39 42.21 41.74 42.55 43.12 44.03 44.24 44.58 44.28 45.08 45.45 47.13 45.11 44.84 44.77 46.35 45.81 46.44 47.16 48.28 48.01 48.21 48.86 48.69 48.72 50.27 51.73 52.55 55.61 61.98
46.00 45.20 44.70 45.63 44.61 42.67 42.72 42.29 41.69 41.82 43.10 45.04 44.62 43.01 43.49 42.75 42.32 42.74 43.66 42.69 42.19 41.68 43.62 45.28 46.58 45.11 44.54 43.90 47.18 43.52 43.71 44.51 44.93 44.81 45.38 45.53 46.10 46.51 45.88 45.77 47.97 48.31 49.43 50.98
45.86 46.14 45.74 45.86 46.12 45.45 43.81 42.24 41.92 42.33 43.80 45.03 44.78 44.07 41.69 42.09 42.99 42.87 43.15 41.94 43.47 43.67 44.41 45.60 44.67 43.72 44.13 43.22 44.88 41.81 41.94 42.12 42.06 42.09 42.35 42.38 42.49 43.52 43.55 42.41 43.72 44.98 45.14 44.97
44.37 45.41 45.01 44.97 44.69 44.75 43.54 42.69 42.46 42.26 43.72 45.23 43.68 42.38 41.02 42.29 43.51 43.75 42.70 42.04 44.02 45.95 44.33 45.37 44.08 43.69 43.47 43.76 42.39 40.70 40.16 40.28 39.99 39.97 39.78 39.74 39.92 40.37 40.24 41.53 41.27 41.58 42.14 42.83
44.74 44.17 43.92 43.55 43.20 43.95 44.04 44.44 42.63 42.00 42.84 44.19 44.28 43.07 41.06 41.14 42.47 43.72 44.38 43.44 45.59 46.27 45.88 44.25 44.03 44.58 43.50 43.44 41.38 40.93 40.12 39.48 39.17 39.19 38.86 39.02 38.73 38.33 38.37 38.55 38.71 39.65 40.02 40.02
43.66 43.21 43.07 41.89 42.08 43.16 43.08 42.59 42.93 42.61 42.73 44.03 43.86 43.96 41.71 41.74 41.92 40.91 41.11 44.97 45.78 45.86 46.33 44.73 44.36 43.96 43.46 40.97 40.25 40.07 39.27 39.22 39.02 38.66 38.60 38.58 38.20 38.07 37.61 37.45 37.82 38.02 37.89 38.05
41.76 41.71 41.67 42.69 43.07 42.60 41.62 43.91 43.36 42.18 43.22 44.28 44.61 44.36 43.34 41.95 42.45 43.84 43.78 44.53 45.48 45.79 45.23 44.70 43.94 43.40 42.42 40.97 39.97 39.83 39.50 38.55 38.37 38.52 38.29 38.03 37.63 37.44 37.17 37.20 37.17 37.44 37.53 37.53
41.11 41.40 42.01 41.78 42.34 42.45 42.84 42.95 43.36 42.12 42.34 43.39 43.00 43.45 44.93 43.60 43.43 43.95 43.40 43.77 45.54 45.86 44.65 45.12 43.75 43.14 43.21 42.02 40.87 39.84 39.71 39.51 38.89 38.65 38.58 37.65 37.07 36.70 36.93 37.01 36.07 35.99 36.62 37.12
39.14 39.47 40.18 40.24 39.41 39.96 41.71 43.54 43.71 42.83 42.02 41.72 43.17 44.79 46.23 46.05 44.58 43.45 43.30 43.88 45.24 44.73 44.48 44.29 43.73 43.27 42.49 41.89 41.63 41.10 40.95 40.83 39.84 38.79 38.39 39.01 38.53 37.19 36.65 37.03 36.57 36.29 36.18 36.54
41.39 42.27 41.42 42.74 42.66 42.02 42.38 43.58 43.25 43.22 42.32 41.71 42.43 44.80 44.38 45.47 44.04 42.40 42.15 42.39 41.95 42.41 43.47 44.51 44.77 43.85 42.93 42.51 41.82 41.49 41.53 41.88 40.34 41.04 39.68 38.29 38.55 39.22 38.27 37.17 36.87 36.87 36.33 35.23

GFSNGP_sfc_wetblb_084.txt.gz
Wetbulb
45.12 44.79 44.72 43.86 43.00 43.92 46.13 47.19 46.91 47.97 49.17 52.43 54.84 55.90 57.51 59.64 59.72 60.16 60.25 58.99 57.97 58.24 59.38 60.61 61.16 61.51 65.08 68.35 70.45 72.57 73.11 73.87 74.42 75.37 75.29 74.42 75.10 74.80 75.69 76.22 76.46 76.44 76.06 76.17
42.64 42.92 43.25 42.10 43.06 42.85 43.77 44.91 47.00 49.18 48.72 54.58 55.97 57.11 56.25 57.01 57.63 57.55 58.53 59.28 60.54 60.36 59.62 59.64 59.78 59.94 60.99 63.41 65.16 69.38 72.10 72.95 74.33 75.15 75.49 75.61 75.80 75.37 75.08 75.95 76.40 76.62 76.19 75.87
40.27 41.98 41.27 39.37 43.55 43.42 44.09 45.27 46.68 45.76 50.37 53.58 53.11 53.38 54.17 55.26 56.08 55.97 56.98 58.21 58.81 60.07 60.67 61.46 62.17 61.59 60.31 61.48 62.81 63.93 65.67 71.95 72.65 74.11 74.22 74.83 75.42 75.67 75.63 75.18 75.59 76.65 76.06 76.17
42.96 41.23 34.35 42.68 46.34 45.57 44.54 46.91 47.93 49.05 49.92 51.03 51.40 52.45 54.13 54.38 53.65 53.42 53.93 55.00 57.11 58.48 59.45 60.88 61.96 62.71 63.28 61.92 60.77 60.34 60.53 61.69 64.67 69.85 72.01 74.52 74.89 75.09 75.49 75.59 75.49 75.54 75.74 76.54
38.71 38.54 40.63 41.43 43.91 44.31 44.30 44.95 48.63 49.29 49.47 50.17 51.30 52.21 53.06 53.07 53.29 53.24 53.73 54.51 55.18 56.22 57.10 59.41 60.30 61.52 62.49 62.78 61.80 60.74 59.36 59.33 60.34 62.29 65.89 69.28 72.94 74.49 75.38 74.61 75.37 75.34 75.61 75.98
40.26 36.12 34.29 43.42 46.31 48.26 47.64 41.77 48.99 49.58 49.01 49.49 50.93 47.10 50.53 52.06 52.48 52.96 53.79 54.29 54.47 55.22 56.26 57.11 58.22 59.24 60.23 61.31 61.68 61.00 60.01 60.93 60.48 61.62 63.47 64.23 69.16 72.95 75.35 77.22 75.02 74.85 75.11 76.09
40.12 38.19 41.53 46.30 47.00 49.13 38.82 42.82 48.55 49.28 49.18 49.77 48.41 50.51 51.27 52.11 52.23 53.05 53.22 53.63 54.07 54.86 55.15 56.54 57.64 57.69 57.97 59.66 59.89 61.24 61.71 62.00 62.07 61.15 61.45 62.84 64.12 68.47 72.90 75.43 76.06 76.22 75.80 76.02
41.28 38.11 35.89 48.58 46.91 42.68 47.61 49.66 49.05 48.54 49.09 48.50 48.88 49.15 49.92 50.88 51.59 52.03 52.18 53.02 53.69 53.58 54.13 55.85 56.84 56.96 56.74 57.89 60.44 61.27 61.75 61.55 61.45 62.14 62.92 62.74 64.03 65.51 67.29 71.16 73.00 74.01 74.66 75.40
43.14 44.59 48.77 49.95 49.31 50.79 49.14 46.95 48.34 48.20 49.07 48.43 47.61 48.07 48.96 49.46 50.43 51.15 51.93 52.31 52.65 52.99 53.54 54.69 55.97 56.63 55.81 57.56 58.91 60.17 60.66 60.89 61.39 60.70 61.12 62.65 62.94 64.58 65.25 68.27 70.02 71.54 69.83 70.61
42.34 46.06 47.69 47.74 47.75 48.46 48.44 48.05 48.36 48.51 48.41 48.55 47.78 47.97 48.59 49.77 50.02 50.55 51.34 51.39 51.72 52.07 52.34 53.07 54.92 55.41 55.93 56.96 57.94 58.78 59.23 59.82 60.29 60.31 56.92 60.37 62.23 63.21 64.04 66.63 67.37 68.95 70.18 69.78
43.71 45.24 46.16 48.03 48.13 48.51 48.33 48.82 48.08 48.48 48.06 47.98 48.39 48.07 48.78 48.63 49.12 49.46 49.36 50.28 50.22 49.95 51.01 52.07 54.29 55.03 55.54 56.17 56.83 56.43 58.07 58.47 58.53 59.16 60.30 56.75 59.55 61.45 62.13 63.97 63.41 64.14 68.02 69.80
43.83 47.63 47.04 47.43 49.07 49.59 48.36 48.15 48.48 47.80 47.35 48.59 48.88 47.92 48.57 48.62 49.13 48.56 48.48 48.37 48.78 47.47 48.81 50.94 51.75 53.27 55.90 56.68 56.32 54.59 56.21 56.79 56.86 57.05 57.91 58.59 56.41 58.89 54.73 51.91 50.18 48.77 48.12 54.13
46.90 49.39 48.49 49.38 50.52 50.04 49.20 49.01 49.18 48.82 48.71 48.25 49.27 49.16 48.81 48.27 49.46 47.90 47.93 48.31 47.00 46.70 48.73 49.59 50.82 50.98 54.24 55.28 56.19 54.57 53.69 56.50 56.20 54.75 56.69 57.43 57.93 58.53 58.11 57.96 52.28 50.05 47.58 47.94
49.02 48.95 46.44 48.24 47.77 50.18 49.91 49.85 49.32 49.83 50.35 50.20 50.09 50.35 49.70 49.10 49.32 48.03 47.53 48.24 47.77 46.45 46.76 48.13 49.04 50.06 49.21 50.17 50.32 53.48 53.70 51.17 54.04 55.23 56.00 56.09 56.74 57.72 58.22 57.94 57.16 57.58 56.27 51.73
46.71 48.64 49.21 50.33 49.94 49.72 50.39 49.98 48.89 48.92 49.77 49.72 50.71 49.96 49.36 48.49 48.07 48.38 47.96 47.93 46.76 47.06 46.70 46.40 46.24 47.71 48.30 48.30 48.38 48.92 49.89 50.82 52.41 54.47 54.66 53.71 54.68 55.90 56.39 55.70 56.19 57.47 59.96 58.38
44.49 45.99 46.89 46.28 47.80 49.24 49.28 49.21 48.56 48.88 49.39 49.84 49.87 50.04 49.61 49.80 48.88 48.53 47.77 47.38 45.03 44.32 44.94 45.40 45.17 47.10 50.10 48.48 48.49 49.25 49.53 50.49 49.85 49.92 50.03 51.21 51.98 52.65 53.48 54.34 55.54 56.46 58.82 59.13
44.50 43.90 45.13 46.13 47.57 48.32 48.77 49.81 50.02 50.04 50.02 49.66 50.20 50.56 50.23 48.88 48.10 46.78 45.74 46.29 46.39 47.07 48.66 46.57 45.45 47.39 47.39 47.42 47.32 47.00 48.41 49.89 49.73 49.17 49.12 49.74 51.01 50.85 52.18 52.93 53.83 55.56 56.21 57.50
49.08 49.85 50.04 50.05 49.35 49.64 49.70 49.98 50.22 50.49 50.28 51.00 51.11 51.18 50.33 49.20 47.28 46.88 45.51 48.25 48.53 47.02 48.39 48.12 47.33 47.49 46.28 45.16 45.03 45.72 46.19 46.41 47.03 47.60 48.16 48.44 48.95 50.24 51.69 53.59 53.51 53.65 54.65 54.80
51.36 50.97 51.39 51.59 51.85 51.32 51.16 51.07 51.11 51.77 51.82 51.44 51.26 50.59 50.23 49.37 48.16 47.73 48.16 47.73 46.60 45.80 46.43 49.21 47.54 46.72 45.65 45.50 46.94 46.63 45.39 44.78 44.92 45.73 46.76 47.60 48.26 48.84 49.54 51.08 51.95 51.86 51.83 51.51
51.28 51.43 51.28 51.21 52.09 51.86 51.24 52.03 52.43 51.77 51.69 51.61 51.38 50.81 49.71 49.07 49.49 48.75 49.08 47.70 48.36 49.05 48.76 48.74 48.23 47.55 45.88 44.26 45.09 42.98 42.49 42.17 42.01 42.54 43.49 44.61 45.78 46.51 48.07 46.06 46.43 47.96 49.30 48.35
50.46 50.66 50.12 50.25 50.58 51.29 51.44 52.19 51.77 51.04 51.50 51.87 50.90 50.58 49.87 49.65 50.13 50.19 48.90 47.86 49.99 50.16 48.68 47.25 47.02 46.48 45.68 44.52 41.95 40.57 40.12 40.04 40.47 40.68 41.01 41.55 42.72 43.60 44.26 45.11 45.25 45.33 45.35 45.08
50.24 50.29 50.34 50.75 50.96 50.88 51.72 52.36 52.31 51.64 51.22 51.39 51.33 51.39 50.27 49.27 49.81 50.10 50.70 49.40 50.57 48.04 48.86 47.33 46.80 45.52 45.42 44.12 41.62 39.83 39.06 38.46 38.67 38.69 39.44 39.91 40.27 40.50 40.92 41.23 41.39 41.60 42.16 42.03
50.87 50.80 51.33 51.08 50.44 50.74 51.40 51.57 51.96 51.12 50.35 50.94 50.57 50.89 49.84 49.50 50.02 48.67 47.61 50.60 51.60 49.36 50.59 49.02 44.73 44.13 43.82 42.86 41.84 40.37 39.18 38.01 37.11 37.29 36.88 37.95 38.21 38.56 39.00 38.97 39.51 40.07 39.68 39.41
50.91 50.86 50.97 51.41 52.05 51.16 49.47 50.94 51.05 50.89 50.29 51.19 51.52 51.86 50.76 48.89 49.98 50.54 49.99 48.48 46.98 47.39 49.56 48.88 45.95 43.38 43.44 45.04 42.69 41.24 40.49 38.60 37.67 36.79 34.94 35.68 36.55 36.87 37.39 38.26 38.12 38.20 38.38 38.14
51.43 51.60 51.15 49.24 48.72 49.57 50.51 51.25 50.77 50.95 51.25 51.21 51.03 51.88 51.49 51.38 50.60 49.83 50.81 49.51 46.01 48.36 49.76 44.52 44.02 44.09 46.94 44.87 43.84 42.60 41.02 40.75 39.01 37.68 35.88 35.37 35.14 34.40 35.35 36.02 36.43 36.68 36.33 36.49
51.02 49.49 49.00 49.31 48.27 48.55 49.02 49.19 50.44 50.38 48.61 47.46 49.71 51.18 51.65 51.18 50.02 50.10 50.05 48.48 48.93 47.76 48.47 49.29 48.82 48.07 45.92 45.02 44.51 43.99 43.32 41.83 41.03 39.44 38.49 37.01 35.49 34.45 34.75 34.23 34.19 35.21 35.70 35.36
50.07 44.49 49.72 48.21 47.38 44.68 45.07 46.87 49.27 48.62 48.07 47.67 47.47 51.66 51.22 49.09 48.80 47.84 44.86 47.96 48.01 48.30 46.99 48.17 48.95 47.70 47.66 45.94 45.02 44.77 44.04 44.13 40.48 40.23 39.01 39.59 37.77 36.02 34.58 33.48 34.57 34.76 34.11 34.55

GFSNGP_sfc_wetblb_087.txt.gz
Wetbulb
48.08 47.38 48.78 49.10 48.43 48.05 49.01 50.83 48.85 51.76 53.53 56.36 57.95 59.17 59.50 58.79 59.71 59.79 59.79 59.88 60.00 60.26 61.37 61.81 62.29 62.77 64.16 65.54 68.12 69.76 71.94 73.11 72.02 76.31 76.73 76.65 76.91 76.96 76.71 78.43 78.10 78.15 78.29 78.05
45.83 46.28 46.24 45.11 46.36 46.44 48.38 49.34 50.89 52.59 51.94 57.00 59.26 59.80 59.37 59.79 59.36 58.06 58.96 60.05 61.35 61.67 61.89 61.73 61.92 61.23 61.50 62.64 64.03 66.85 68.41 68.48 71.50 73.49 74.45 76.39 76.99 76.39 76.64 76.16 78.04 79.21 78.22 78.00
42.99 45.99 44.70 42.50 46.44 46.91 47.52 49.54 51.35 50.74 54.51 57.30 56.68 56.82 57.28 57.96 58.24 57.92 58.61 59.29 60.24 60.86 61.75 62.55 63.15 63.74 61.94 61.10 61.63 62.02 62.78 62.56 66.27 68.85 69.38 70.39 74.52 76.34 76.88 77.21 77.05 78.42 78.69 78.32
43.13 45.43 37.38 46.32 49.75 49.17 47.79 48.95 52.06 54.45 55.67 56.48 56.38 56.76 56.47 57.01 56.42 56.06 56.43 57.16 58.00 58.36 59.33 61.25 62.30 62.69 64.46 65.01 61.91 61.43 60.83 61.34 62.52 64.47 66.61 67.91 70.10 74.20 76.17 76.17 75.79 77.32 77.16 78.69
41.91 41.84 44.10 44.86 47.14 46.36 46.93 47.67 51.31 52.70 53.49 54.47 54.78 55.78 54.30 55.45 56.05 56.01 56.45 57.26 57.90 58.27 58.92 60.00 60.44 60.84 61.87 63.36 64.37 64.33 62.71 62.91 62.11 61.82 62.35 64.60 67.32 68.17 72.79 75.60 76.99 75.87 76.61 77.19
43.93 39.81 37.93 46.23 49.01 51.72 50.22 44.66 51.88 53.13 52.72 52.56 52.95 48.64 52.70 55.49 55.14 55.13 55.81 56.71 56.89 57.45 58.25 58.65 59.62 60.03 59.78 60.62 61.81 62.48 63.12 63.62 64.64 64.70 63.11 61.61 62.71 64.93 67.65 71.77 74.88 76.90 76.10 77.15
42.91 41.20 44.48 49.84 49.69 50.05 40.68 45.99 52.49 52.98 53.20 51.96 51.52 53.43 54.15 54.62 54.37 55.14 55.20 55.50 56.33 57.13 56.85 57.95 58.98 59.18 58.96 59.46 59.78 61.60 62.47 63.13 64.04 64.52 64.68 64.36 63.51 64.56 65.20 66.88 70.05 73.54 75.52 77.26
43.68 41.70 39.19 51.48 49.09 44.64 50.64 52.92 52.74 52.86 52.13 51.29 51.98 52.24 52.41 52.88 53.12 53.75 54.09 54.77 55.36 55.47 55.98 57.25 57.99 57.94 57.98 58.59 60.23 61.11 61.42 62.09 63.01 63.78 63.73 63.63 64.88 66.17 65.55 66.26 67.13 70.30 73.87 74.66
45.27 46.48 52.53 53.05 51.77 54.36 54.30 52.34 51.47 51.27 51.73 51.08 50.50 50.85 51.25 52.09 52.43 53.19 53.66 54.58 55.16 54.46 55.10 56.41 57.50 57.62 56.71 58.21 59.43 59.64 59.97 60.48 61.88 62.75 63.05 63.98 63.07 64.51 63.95 67.03 67.22 67.63 69.41 70.72
46.57 49.68 50.03 51.56 52.11 52.03 51.39 51.29 51.32 51.53 50.87 50.58 50.20 50.44 50.89 51.50 51.92 52.52 52.75 52.46 53.56 53.08 53.27 54.18 55.42 55.97 57.14 58.41 58.72 58.33 58.48 58.96 60.00 60.95 60.75 62.01 62.75 62.28 62.46 62.91 64.53 65.11 65.27 67.08
46.58 49.27 50.34 50.86 50.72 50.93 50.66 51.38 50.83 51.21 50.86 50.44 50.17 50.28 50.95 50.80 50.97 51.25 51.71 52.17 52.61 52.19 51.54 51.84 53.32 54.04 55.95 57.15 57.94 57.56 57.40 57.54 58.18 59.45 60.08 61.62 62.41 61.91 61.52 62.74 60.29 61.32 62.18 63.04
45.76 49.82 49.84 50.34 52.40 52.24 51.04 50.68 51.40 50.77 50.02 50.95 50.82 50.76 51.12 52.04 51.76 51.45 51.16 51.68 51.47 51.56 51.40 51.09 50.31 51.71 53.80 54.74 55.87 56.81 56.37 56.72 56.76 57.77 58.46 58.61 58.73 59.22 52.48 51.69 49.97 49.78 47.82 53.42
49.80 52.27 52.11 51.75 52.88 52.74 51.62 51.99 52.19 51.35 50.99 50.44 51.33 52.44 51.97 51.87 52.23 50.64 51.87 51.15 50.91 50.40 50.77 51.15 51.06 50.16 51.01 52.30 52.75 53.02 54.54 55.18 56.03 55.52 57.59 57.77 58.12 57.95 57.45 57.40 49.42 48.44 46.73 46.65
52.52 51.56 49.45 50.48 50.25 52.40 52.46 52.61 50.64 51.96 51.99 51.82 51.66 51.81 51.95 52.03 51.81 49.85 50.17 50.42 50.93 49.91 49.39 49.68 49.78 50.45 50.98 51.59 52.32 52.28 52.23 49.54 51.78 53.29 55.59 56.07 56.47 57.25 57.74 57.59 57.77 59.04 52.27 51.14
50.03 51.59 50.87 52.18 51.97 52.23 52.74 52.53 51.12 50.51 51.43 51.75 52.64 51.40 51.28 50.15 49.60 50.00 51.53 49.52 50.45 49.80 48.61 49.03 48.68 48.87 51.03 49.24 49.38 50.06 49.50 50.29 51.44 51.60 52.77 53.70 54.98 55.60 56.02 56.43 57.18 57.94 59.28 56.22
46.80 46.71 48.92 48.99 50.27 50.92 51.39 51.09 50.11 50.61 51.38 51.68 51.48 51.47 51.08 50.32 51.81 50.70 51.08 49.99 48.40 48.11 48.92 48.13 48.20 49.49 50.36 49.34 48.74 47.18 48.84 49.44 50.24 50.88 51.60 51.57 52.62 53.64 54.86 55.63 56.35 57.33 58.20 59.31
44.41 42.86 44.17 45.41 47.25 48.48 49.26 50.38 51.02 51.12 51.11 51.24 51.77 52.41 51.65 51.16 49.65 50.66 49.29 49.81 49.71 48.93 49.77 49.15 49.05 50.06 49.35 48.38 47.46 46.27 45.80 47.39 48.16 47.93 48.15 49.13 50.00 50.80 52.58 54.21 54.74 55.78 57.32 58.23
50.36 49.29 49.72 48.99 48.84 48.71 49.93 50.84 50.94 51.50 51.40 51.60 52.15 51.77 51.68 50.64 50.41 50.73 50.12 50.20 49.06 49.19 48.89 49.67 49.72 49.65 48.87 48.41 45.58 46.04 46.00 46.27 46.62 46.16 46.69 46.73 47.39 48.93 49.53 50.24 52.89 54.93 56.88 57.67
51.18 51.13 51.41 51.31 52.12 52.47 52.60 51.96 52.02 51.68 52.24 52.55 51.91 51.64 52.17 52.42 51.61 51.06 51.08 50.21 49.13 48.08 48.36 50.55 48.28 49.16 47.77 46.94 46.58 45.02 44.28 43.85 44.27 44.39 44.73 44.78 45.33 46.35 47.19 48.41 49.71 52.84 54.05 54.12
52.21 52.55 52.48 52.47 52.99 52.06 51.11 52.18 52.78 51.79 52.69 52.98 51.57 51.81 51.61 51.74 51.70 51.03 50.51 48.31 49.63 50.18 51.46 49.64 49.76 48.69 48.12 47.46 45.48 42.88 41.69 40.86 40.64 41.34 41.90 42.10 42.24 42.87 44.32 44.19 45.98 48.01 49.92 49.81
50.68 51.43 51.37 51.86 51.48 51.92 51.62 52.22 51.65 52.03 53.40 53.54 51.05 51.74 51.91 52.41 52.03 51.90 50.51 48.44 51.78 52.81 51.72 48.42 49.14 48.22 47.69 45.82 43.33 42.00 40.36 39.60 39.53 39.61 39.90 40.41 40.38 40.76 41.57 42.69 43.80 45.23 46.00 46.95
51.24 50.97 51.14 51.04 51.49 50.85 51.94 51.76 52.52 52.73 52.41 52.36 52.46 52.57 52.22 51.45 51.46 51.53 52.12 50.90 52.47 50.17 50.92 50.62 49.63 45.17 46.23 44.54 43.85 42.85 41.50 39.61 38.86 38.16 37.89 38.26 38.76 39.12 39.30 40.27 41.15 41.72 42.74 43.42
50.57 51.06 50.41 51.43 49.79 51.47 52.78 51.51 51.74 51.75 52.05 52.81 52.69 52.28 52.43 50.70 50.37 48.82 48.99 52.57 51.26 49.75 49.95 51.31 45.90 44.01 44.40 45.48 45.30 44.29 41.34 40.46 39.35 38.03 37.29 36.69 37.14 37.87 37.53 38.30 39.17 39.74 40.51 40.74
51.43 50.98 51.37 51.94 51.69 51.86 51.25 52.50 51.68 52.31 52.53 52.84 52.75 52.10 51.27 49.34 49.53 51.19 51.46 49.93 47.04 48.94 49.72 50.30 47.51 44.66 43.76 45.64 46.24 44.85 44.66 41.44 40.18 39.30 38.23 36.37 36.11 36.54 36.75 36.35 36.84 37.75 38.42 38.34
52.20 51.74 51.70 50.62 49.61 49.62 51.65 52.34 52.37 52.17 51.57 52.35 52.59 53.10 51.92 51.98 50.45 50.25 51.95 50.85 46.64 48.52 49.56 45.82 45.95 45.36 47.60 47.20 46.27 45.68 44.27 43.97 42.26 39.84 38.55 37.89 36.29 36.55 36.71 35.48 34.79 34.42 35.40 37.05
50.62 49.51 49.04 49.83 48.93 48.99 48.89 49.41 50.10 52.41 51.70 50.39 51.61 51.61 50.35 50.49 51.33 51.70 50.89 49.34 50.16 49.42 49.29 50.18 50.35 49.57 49.40 48.76 47.58 46.44 46.03 43.62 43.51 42.65 39.06 38.28 37.51 35.71 35.53 35.33 35.12 34.23 34.42 34.50
50.09 46.96 48.15 47.20 49.54 49.13 47.93 47.60 48.47 50.07 48.74 49.45 49.36 50.18 49.61 49.95 51.29 50.35 47.83 49.68 50.56 49.55 49.58 50.01 49.74 48.81 48.13 49.87 48.51 48.36 47.32 47.80 42.22 43.33 41.53 39.06 38.10 37.06 35.50 35.90 35.35 34.64 33.53 34.09